Theta_e
312 315 316 317 320 322 323 323 320 318 320 320 321 320 317 317 318 318 317 316 312 311 315 316 319 318 316 321 317 308 311 312 310 312 314 316 316 316 317 319 320 320 321 320 318 317 318 318 319 319 320 319 318 318 318 318 317 315 313 311 311 310 308 307 307 307 306 306 306 306 307 306 305 305 305 305 305 305 305 305 305 305 306 307 309 313
314 315 319 322 322 321 323 323 321 319 321 321 319 319 318 317 319 316 315 319 315 310 316 318 321 321 322 328 320 310 314 314 309 308 311 313 315 316 317 317 319 320 320 320 319 318 317 318 319 319 319 319 318 318 318 318 317 316 313 311 311 311 309 308 307 307 307 308 308 308 307 306 306 306 306 306 306 306 305 305 304 304 304 304 304 305
318 317 320 320 319 320 322 323 323 323 323 323 319 318 320 319 318 319 319 323 319 314 319 321 319 325 329 330 326 317 314 313 311 310 311 312 313 315 317 317 318 319 320 320 319 319 318 318 319 319 320 318 318 318 319 318 317 316 314 311 312 311 309 308 307 307 309 309 308 308 307 307 307 307 307 307 307 306 305 305 304 303 303 303 303 304
316 319 317 314 316 320 322 322 320 320 322 325 322 318 321 318 316 321 323 324 321 314 317 320 318 326 332 330 330 318 310 311 312 312 312 312 312 313 315 317 317 318 319 319 320 319 319 319 319 319 319 318 318 318 319 318 318 317 314 312 312 311 310 309 308 309 310 309 308 308 308 308 308 308 308 307 307 307 306 306 305 304 304 304 303 304
314 315 312 315 321 320 319 320 319 317 319 327 326 319 320 321 317 318 321 325 325 317 318 319 319 331 334 329 330 320 311 314 312 311 313 312 313 313 314 316 317 318 318 319 319 319 319 319 319 319 318 318 318 319 319 318 318 317 315 313 313 312 310 309 309 310 310 309 308 308 308 308 308 308 308 308 308 307 307 307 306 306 305 305 304 304
313 311 309 317 322 319 319 322 323 321 321 328 331 324 323 326 320 318 322 326 327 323 319 314 317 335 336 327 330 326 319 320 314 312 313 312 313 313 313 315 316 317 318 318 319 319 319 319 319 318 318 318 319 319 319 318 318 317 316 314 313 312 311 310 310 310 311 309 308 308 308 308 308 308 309 308 308 308 308 307 307 307 306 305 305 305
315 312 312 319 323 321 320 320 323 322 320 322 325 325 325 326 323 320 321 321 323 321 316 314 318 328 333 330 330 325 321 322 318 316 313 309 312 313 313 314 314 316 317 317 319 319 319 319 318 318 318 319 320 319 319 318 318 318 316 315 314 313 311 310 310 311 311 310 309 308 308 308 308 308 309 309 309 308 308 308 308 307 307 305 305 304
315 315 317 322 326 323 320 323 324 320 320 322 322 322 323 325 325 324 322 320 323 319 317 323 321 318 326 328 323 319 318 320 320 321 317 310 310 312 311 313 313 314 315 316 318 319 319 319 318 319 320 320 320 319 319 318 318 317 317 316 314 313 312 311 311 310 311 311 309 308 309 309 309 308 309 309 309 309 308 308 308 307 307 306 305 304
314 314 316 320 324 321 322 330 324 317 320 324 321 319 320 322 324 327 324 321 322 316 318 329 319 313 326 327 319 317 316 319 321 322 320 312 310 310 310 311 311 312 313 314 316 318 319 319 319 320 320 320 320 319 319 319 318 318 318 317 314 313 312 311 311 311 311 311 310 309 309 309 309 309 309 309 309 309 309 308 308 308 307 307 306 305
312 310 312 317 321 323 329 329 320 318 319 317 315 315 315 317 320 323 322 321 323 317 317 327 318 312 322 327 325 318 313 318 320 318 316 310 308 311 310 310 311 311 312 313 315 316 318 319 319 319 320 320 320 319 319 319 318 318 318 317 314 313 312 312 311 311 311 311 310 309 309 309 309 309 309 309 310 310 309 309 308 308 308 307 307 306
309 308 311 315 316 321 325 318 311 314 314 311 315 316 314 318 321 322 324 321 318 318 320 325 319 311 316 326 328 320 313 315 316 314 313 309 308 310 309 310 312 311 312 313 313 316 318 319 319 319 319 320 319 319 318 318 318 318 318 317 315 314 313 312 312 311 311 311 311 310 309 309 310 310 309 309 310 310 310 309 309 308 308 308 307 306
310 309 313 314 312 314 316 312 307 308 310 312 321 320 315 319 320 319 323 318 314 320 322 320 315 311 314 321 320 316 313 313 312 312 313 311 308 308 310 312 312 312 312 312 313 315 317 318 319 319 319 319 319 319 319 319 318 318 318 318 316 314 314 313 312 312 311 311 311 310 310 310 310 310 309 309 310 310 310 310 309 309 308 308 308 307
317 314 312 311 311 311 314 316 310 308 312 316 320 320 315 316 317 318 319 316 316 319 315 314 313 311 316 319 314 312 313 311 310 310 309 309 307 308 310 312 312 312 312 312 312 314 316 318 319 319 319 319 319 319 319 319 319 319 318 318 317 316 315 313 312 312 311 310 311 310 310 310 311 310 310 310 310 310 310 310 310 309 309 308 308 307
322 321 314 310 312 311 313 318 315 313 315 313 316 319 318 316 316 318 317 313 315 317 313 313 314 314 319 317 312 312 312 310 309 308 308 308 306 307 310 311 311 312 311 312 313 313 315 317 318 319 319 319 319 319 319 319 319 319 319 318 318 317 316 314 313 313 312 311 311 310 311 311 311 311 310 310 309 310 310 310 310 310 309 308 308 307
317 318 318 313 311 310 312 315 316 320 316 311 314 316 316 319 319 318 317 314 314 316 314 310 312 320 321 313 312 312 308 308 308 307 308 307 306 308 311 312 312 311 311 312 313 313 315 316 317 319 319 319 319 319 319 319 319 319 319 319 319 318 316 315 314 314 313 313 311 311 311 311 311 311 311 311 310 310 310 310 310 311 310 310 309 308
310 314 318 313 308 309 311 310 310 316 314 309 311 312 314 320 321 316 313 315 316 315 315 313 315 323 319 311 313 311 308 309 307 306 307 306 306 307 309 311 312 313 313 313 313 314 315 316 317 318 319 319 319 320 320 320 320 320 319 319 319 319 317 316 315 315 315 314 313 312 311 311 311 311 311 311 311 310 310 310 310 311 311 310 309 308
310 316 319 312 309 310 309 308 307 310 314 311 309 312 314 314 318 317 310 311 314 314 316 315 315 319 315 313 316 314 312 311 308 306 306 305 305 306 306 308 310 312 313 313 314 315 315 316 317 318 319 320 320 320 320 320 320 320 319 319 319 318 318 317 316 316 316 316 315 313 312 312 312 312 312 313 312 311 310 310 310 311 312 311 310 309
311 317 321 313 311 311 307 308 309 307 310 314 313 314 312 309 317 320 314 315 315 314 319 317 313 317 316 315 318 315 312 311 311 309 306 304 305 305 306 307 308 310 310 311 312 313 315 316 316 317 317 318 319 320 320 320 320 319 319 319 319 318 318 317 316 316 316 316 316 315 314 313 313 313 313 313 313 312 311 310 310 310 311 311 311 310
309 315 322 314 310 311 308 309 313 309 307 312 314 312 312 315 319 318 316 318 314 312 320 319 312 314 318 318 316 311 310 311 311 310 308 306 305 304 306 307 308 310 310 310 310 311 313 314 315 316 316 318 318 319 320 320 320 320 320 319 319 318 318 317 316 315 316 316 317 316 316 315 315 314 314 314 314 314 312 310 310 310 311 312 311 310
309 312 319 316 310 309 312 313 316 316 310 310 313 311 314 319 320 316 315 317 314 314 318 317 312 314 318 319 316 310 310 311 309 310 309 306 304 304 306 307 309 310 310 310 310 310 311 311 312 314 315 317 317 318 319 320 320 321 320 320 320 319 319 318 318 317 316 316 317 317 317 317 316 316 315 316 316 315 313 311 310 310 311 312 312 311
312 309 315 322 314 310 314 314 315 318 314 313 315 315 313 313 312 313 312 312 314 317 319 317 315 317 319 318 315 311 311 310 308 309 308 304 303 305 305 307 309 309 309 310 309 310 311 310 310 311 312 314 315 316 318 319 320 320 320 321 321 320 320 319 319 318 317 316 317 318 318 318 318 317 317 317 317 317 316 313 311 311 312 312 312 311
313 312 316 322 317 314 318 314 310 313 314 315 317 316 314 314 312 313 313 311 312 313 316 316 316 319 319 316 316 314 313 311 307 306 305 303 304 305 306 307 309 309 309 309 309 309 309 310 310 310 311 312 313 314 316 317 318 319 320 320 321 321 321 321 320 320 318 318 317 318 319 319 319 318 318 318 318 318 318 315 313 312 312 312 312 312
313 315 315 317 316 315 314 308 304 306 309 312 313 311 313 316 319 318 316 316 314 310 311 313 316 320 320 317 317 313 310 307 304 304 304 304 306 306 307 308 308 308 308 308 309 309 309 309 309 309 310 310 311 312 313 314 315 317 318 319 320 320 320 321 321 321 320 320 318 318 319 319 319 319 319 319 319 319 319 317 315 313 312 313 313 312
313 314 313 316 320 316 312 308 305 306 309 310 309 308 308 312 317 320 319 318 315 313 314 313 314 319 320 316 311 305 303 303 303 304 305 305 306 307 307 308 308 308 308 308 308 308 308 309 308 308 309 309 309 310 310 311 311 313 314 316 318 319 319 320 320 321 321 321 320 320 319 318 318 319 319 319 319 319 319 319 316 314 314 313 313 313
311 316 315 315 318 316 314 313 312 312 313 310 309 307 307 310 312 313 314 313 311 313 315 315 316 318 318 314 309 305 304 304 304 305 305 305 306 307 307 307 307 307 307 307 307 307 307 308 307 308 308 308 309 309 309 309 309 310 311 311 313 315 316 318 319 320 321 321 321 321 320 319 317 317 318 319 319 319 319 319 318 316 314 313 313 313
310 316 316 313 314 314 313 314 316 317 313 308 308 306 306 311 311 309 311 310 311 313 311 314 318 316 312 311 311 312 310 307 305 305 306 305 306 307 307 307 307 307 307 307 307 307 307 307 307 307 307 307 307 308 308 308 308 308 308 309 310 311 313 315 317 320 320 321 322 322 321 321 319 317 318 318 319 319 319 319 318 317 315 314 313 312
310 312 312 313 314 313 311 312 313 313 310 308 308 306 307 311 311 310 310 310 313 314 311 314 315 311 309 309 311 313 312 309 307 305 305 306 306 306 307 306 306 306 306 306 306 306 306 306 306 307 307 307 307 307 307 307 307 307 307 307 308 308 309 311 313 317 319 321 321 322 322 322 321 321 320 319 319 319 319 319 319 318 316 314 312 311
312 311 311 311 312 311 310 310 308 308 309 310 310 308 308 311 310 310 310 310 312 310 309 313 313 309 310 311 311 313 312 310 307 304 305 306 305 306 306 306 306 306 306 306 305 305 306 306 306 306 306 306 306 306 306 306 306 306 307 307 307 307 307 308 310 313 316 318 320 321 321 322 322 321 321 320 320 319 318 318 318 318 317 315 312 311
311 311 309 308 311 311 309 308 306 307 308 308 309 310 310 311 310 308 310 312 311 308 308 313 314 312 313 314 313 311 309 307 306 305 305 305 305 306 306 306 306 306 305 305 305 306 306 306 306 306 306 306 306 306 306 306 306 306 306 306 306 307 307 307 308 309 312 315 317 319 320 321 321 321 321 320 320 319 318 317 318 318 317 315 312 310
308 313 311 307 309 310 310 310 307 307 308 308 308 309 308 309 308 308 309 311 309 308 308 309 310 311 312 313 313 308 304 304 305 305 306 305 305 306 305 305 306 305 305 306 306 306 306 306 306 306 306 306 306 306 306 306 306 306 306 306 306 306 306 306 307 307 309 311 313 316 319 320 320 321 321 320 320 319 318 316 317 317 316 314 312 311
306 311 312 308 307 308 310 311 309 307 309 308 307 308 306 306 306 305 306 307 307 307 308 306 306 308 307 305 306 305 304 305 306 305 306 305 305 305 305 306 306 305 305 305 305 306 306 306 306 306 306 306 306 306 306 306 306 306 306 306 306 305 305 305 306 306 308 309 311 314 317 318 319 320 321 320 320 320 318 317 317 316 315 313 311 311
306 309 310 308 307 307 308 310 309 308 308 306 306 307 306 306 308 307 306 308 308 308 307 305 305 308 306 301 302 305 305 304 304 304 305 305 305 305 305 305 304 303 303 303 303 303 303 303 303 303 304 304 304 304 304 305 306 306 306 306 306 305 305 304 304 305 306 308 309 311 313 315 318 319 320 320 320 320 318 317 316 315 313 312 311 310
307 308 309 309 306 305 307 309 308 308 308 307 308 309 308 307 308 308 307 307 307 307 307 306 306 308 307 303 305 308 305 303 304 304 304 304 305 305 304 303 302 302 302 301 301 301 301 301 301 302 302 302 302 302 302 303 303 303 304 304 304 304 304 304 304 304 304 306 307 309 311 313 316 318 319 320 320 320 318 317 316 314 313 312 310 309
308 306 306 308 305 304 306 307 307 307 306 306 307 308 308 307 307 307 307 306 307 306 307 308 307 306 305 305 308 309 307 305 304 303 303 303 304 305 303 302 302 302 301 301 301 301 301 301 301 301 301 301 301 302 302 302 302 302 302 302 302 302 302 303 303 303 304 304 305 307 309 312 315 317 318 319 319 319 318 316 315 313 312 311 309 308
307 306 305 306 305 305 304 305 306 307 305 304 305 304 305 305 305 305 306 306 306 306 306 308 307 304 303 304 306 306 305 304 304 304 304 303 303 304 304 302 302 302 301 301 301 301 301 300 300 300 300 300 301 301 301 302 301 301 301 302 302 302 302 302 302 303 303 303 303 305 307 311 315 317 318 318 318 318 317 315 313 312 311 309 308 306
305 305 304 305 305 304 304 305 307 306 304 305 306 305 305 307 306 304 304 305 304 304 307 308 307 304 302 303 304 304 304 304 304 303 303 302 303 304 303 303 302 301 301 301 301 301 300 300 300 300 300 300 300 300 301 301 301 301 301 301 301 301 301 302 302 302 303 303 303 304 306 310 314 316 317 318 318 317 316 314 312 311 310 308 306 304
303 305 304 303 304 304 305 307 306 304 304 306 307 304 303 306 305 303 304 305 303 303 304 307 308 306 302 303 305 304 303 303 303 303 302 302 303 303 302 303 302 302 302 301 301 300 300 300 300 300 300 300 300 300 300 300 300 300 300 300 300 300 301 301 302 302 302 303 303 303 304 309 314 316 317 317 317 317 315 314 312 311 309 306 304 303
302 304 304 304 304 303 304 305 305 305 306 306 305 303 301 302 302 301 303 305 304 301 301 304 307 305 301 302 303 303 302 303 304 304 301 301 301 301 302 302 302 302 302 301 301 300 300 301 301 300 301 300 300 300 299 299 299 299 299 299 299 299 300 301 301 301 302 303 303 303 304 309 313 316 316 316 317 316 314 313 311 310 307 305 304 305
303 303 303 304 304 304 303 304 305 306 306 305 304 303 301 300 299 300 303 305 303 300 299 301 302 301 300 301 302 302 302 303 304 303 301 301 302 301 301 302 301 301 301 300 301 301 301 301 301 301 301 300 299 299 299 299 300 299 300 300 299 299 299 300 300 301 301 302 303 304 304 307 312 314 315 316 316 314 312 312 310 308 306 305 305 305
306 305 304 303 304 305 304 304 305 304 304 304 304 303 301 300 299 301 306 306 301 299 300 300 300 300 301 301 301 303 304 304 303 302 301 301 302 301 301 301 300 300 300 300 301 301 301 301 301 301 300 300 300 300 300 300 300 300 300 300 300 300 300 300 300 300 301 302 304 304 305 307 311 314 314 315 315 313 312 310 307 305 304 304 304 305
304 304 302 301 304 305 304 304 305 304 304 304 303 301 300 300 301 304 306 304 300 299 301 301 301 302 302 301 301 303 304 303 302 302 302 301 301 301 301 301 300 300 300 300 301 301 301 302 302 301 301 301 300 300 300 301 301 301 301 301 301 301 300 301 301 301 302 303 304 305 305 307 310 313 314 314 314 312 310 307 304 304 303 303 303 303
302 301 301 301 302 302 303 304 303 302 302 302 301 299 298 300 303 304 303 300 299 300 301 302 302 302 302 302 301 302 302 301 301 302 301 300 300 300 300 300 300 300 300 300 300 301 301 302 302 302 302 301 301 301 301 301 301 301 301 301 301 302 302 302 302 303 304 305 305 306 306 309 311 313 313 313 312 311 308 305 305 305 304 302 302 301
300 299 300 302 300 299 301 301 301 302 301 300 299 299 299 301 302 301 299 299 300 300 300 300 300 300 300 300 299 299 300 300 300 299 299 299 298 298 298 299 300 300 300 300 300 300 301 302 302 302 302 301 302 302 301 301 301 301 301 302 302 302 303 303 303 304 305 306 306 306 308 310 312 312 312 311 309 308 307 305 305 305 302 300 299 299
299 299 300 301 300 299 300 302 302 301 300 299 300 300 300 299 299 298 298 299 300 300 299 299 299 298 299 299 299 299 299 299 298 298 298 298 297 298 298 298 298 299 299 299 299 300 301 302 302 302 302 301 302 302 302 302 302 302 302 302 303 303 303 303 304 304 306 306 307 307 309 311 312 312 311 308 305 305 305 304 303 301 298 297 297 298
298 299 299 300 299 299 300 301 300 299 298 298 299 299 298 297 297 297 298 299 300 299 298 299 299 299 299 299 299 299 299 298 298 298 297 298 298 298 298 298 298 299 299 299 299 299 300 301 302 301 301 301 302 302 302 302 302 302 303 303 303 304 304 304 305 305 306 307 308 309 310 311 311 310 308 306 304 304 303 301 299 298 298 298 298 298
297 297 297 298 299 298 297 298 297 296 297 298 297 297 297 297 297 298 299 300 300 299 299 299 299 298 298 298 298 298 298 298 298 298 298 298 298 298 299 299 299 299 299 299 299 299 300 301 301 301 301 301 302 302 303 303 303 303 304 304 304 304 304 304 305 305 306 307 308 309 310 310 309 306 305 303 302 301 300 298 298 298 298 298 298 298
297 295 296 298 299 298 298 298 296 296 297 297 297 297 297 297 297 298 299 299 299 298 299 299 298 298 297 297 298 298 298 298 298 298 298 299 299 299 299 299 299 299 299 300 300 300 301 301 301 301 301 301 302 303 303 303 304 304 304 304 304 304 304 304 305 306 306 308 309 309 309 308 306 304 303 301 299 298 298 298 298 298 297 297 297 296
297 295 296 298 298 297 297 297 296 296 297 297 297 297 297 297 297 297 298 298 298 298 298 298 298 298 297 297 298 298 298 298 299 299 299 299 300 300 299 300 300 300 300 300 301 301 301 301 301 302 302 302 302 303 303 303 303 304 304 304 304 304 303 304 305 306 307 308 309 309 307 305 303 301 301 300 298 298 299 299 298 298 297 296 295 294
296 296 297 297 297 296 296 296 296 296 296 296 296 297 296 297 297 297 297 297 298 298 298 297 298 298 298 298 298 298 299 299 299 299 299 299 299 299 300 300 300 300 301 301 301 301 301 302 302 302 302 302 303 303 303 304 304 304 304 303 303 304 304 304 305 307 307 308 308 306 304 302 300 299 298 298 298 299 298 298 297 296 295 294 294 295
296 296 296 296 296 296 296 296 296 295 295 295 296 296 296 296 296 296 296 297 297 297 298 297 298 298 298 298 298 298 299 299 298 299 299 299 299 300 300 300 301 301 301 301 301 301 301 301 302 302 303 303 303 303 304 304 304 304 303 303 303 304 304 305 306 306 307 307 305 302 300 299 298 298 298 299 299 299 298 296 295 294 294 295 295 296
296 296 296 296 296 296 295 295 295 295 295 295 296 296 296 295 296 296 297 297 297 297 297 298 298 298 298 297 297 298 298 298 298 299 299 299 300 300 301 301 301 301 301 301 301 301 301 301 302 302 303 303 303 303 304 304 304 303 303 303 303 304 305 306 306 306 306 304 302 299 298 298 298 299 299 299 299 299 298 295 294 294 295 296 296 295
Wind_Speed
4 3 1 3 5 6 6 5 5 4 5 6 5 5 4 2 2 4 4 5 2 3 1 1 4 7 6 7 6 5 5 8 14 13 13 16 18 22 25 28 32 35 37 36 37 39 38 35 34 31 30 29 27 24 21 18 16 13 10 8 6 6 7 7 7 7 6 5 5 6 7 6 5 5 4 3 2 1 2 4 5 6 8 9 9 9
4 2 4 7 9 7 5 4 5 4 5 4 5 5 2 2 2 5 3 4 4 1 3 2 3 6 7 7 5 6 5 6 12 14 15 19 21 22 25 28 31 32 33 33 36 39 39 38 36 34 33 32 30 27 24 20 18 15 12 9 7 6 7 7 7 6 7 6 6 8 9 8 8 7 5 4 3 1 2 2 4 5 7 8 9 9
4 3 8 8 6 4 4 5 6 5 5 4 3 3 0 2 3 5 3 5 4 1 3 3 4 6 7 7 7 4 4 6 11 13 13 18 23 25 28 29 29 31 32 33 35 38 40 40 39 37 36 34 32 29 25 22 20 18 15 12 9 7 7 8 9 8 9 10 10 9 9 9 8 7 6 5 5 4 4 3 3 3 4 5 7 8
2 5 6 3 6 6 4 3 6 4 2 3 3 3 2 2 1 2 4 6 4 2 1 2 3 6 6 6 7 5 4 3 5 6 8 13 19 24 28 31 31 33 34 34 35 37 40 41 40 40 38 36 34 31 28 25 23 21 18 14 11 9 8 9 11 11 12 12 12 10 9 8 7 6 6 6 6 6 6 6 7 6 5 4 3 4
5 7 5 5 5 5 3 2 5 5 1 2 2 4 2 2 3 4 4 5 4 4 3 4 4 6 4 5 6 4 4 4 1 2 5 8 13 19 24 29 33 36 37 37 36 37 40 42 43 42 40 37 35 34 31 28 25 23 19 14 11 10 9 10 13 14 14 13 12 12 10 9 8 7 6 6 6 7 7 8 8 9 9 8 6 3
6 6 3 5 2 3 5 2 3 6 2 4 3 6 6 5 4 3 2 5 5 4 4 4 3 5 5 4 6 4 6 6 5 4 6 7 9 14 20 25 31 35 37 38 38 39 42 44 44 43 40 38 37 35 33 30 27 23 19 15 13 11 11 12 14 15 15 14 12 11 11 10 10 9 6 5 6 6 7 7 8 9 10 10 10 8
4 2 3 4 3 4 3 3 5 6 5 2 4 6 6 6 5 3 2 4 2 3 3 3 2 5 6 5 6 5 6 8 8 7 9 10 8 13 18 21 27 32 35 38 38 39 42 45 45 44 41 39 39 37 34 32 28 24 20 16 14 13 13 13 14 15 16 15 12 10 10 10 10 10 7 5 5 5 6 7 7 8 9 10 11 10
3 2 5 5 5 5 2 3 5 7 7 2 5 7 8 6 5 5 5 4 2 3 4 4 3 2 4 5 5 5 5 8 8 8 11 13 10 10 13 17 22 28 33 37 40 41 41 45 46 44 41 39 40 38 36 33 30 26 22 18 16 15 15 14 14 15 16 15 13 11 10 9 9 9 7 5 4 4 5 5 6 7 8 9 10 10
2 2 3 2 5 3 3 5 7 9 5 5 5 7 6 6 5 5 6 3 1 1 3 5 2 1 4 6 4 5 4 6 8 8 9 13 17 15 14 16 17 23 29 34 39 42 42 43 45 43 41 40 40 39 37 35 31 28 24 21 19 18 17 15 15 16 15 15 14 13 12 10 9 9 8 6 5 4 4 4 5 5 6 7 8 9
3 4 4 3 4 3 6 4 7 9 3 4 6 7 5 6 5 5 5 3 3 3 4 6 1 1 4 6 5 4 3 4 7 7 7 10 18 19 16 15 14 16 23 30 36 40 42 42 43 43 42 41 41 41 39 36 32 29 26 24 22 20 18 17 17 16 15 15 16 15 13 11 10 10 9 8 6 5 4 3 3 4 4 4 6 7
4 2 2 3 4 5 4 2 3 4 3 4 6 6 6 6 5 4 3 4 4 2 6 7 2 2 2 5 3 1 1 3 6 7 8 10 15 14 10 10 10 13 19 26 32 37 40 41 41 42 43 43 43 42 39 36 34 31 28 26 24 22 21 20 19 18 17 16 17 16 15 13 11 11 9 8 7 6 5 4 3 3 3 3 4 6
6 3 2 3 4 3 6 4 2 4 4 5 4 5 4 4 4 4 4 3 3 3 6 4 1 4 1 4 3 4 5 4 4 6 8 10 15 13 6 4 5 9 15 21 27 34 37 38 41 43 44 44 43 42 40 38 36 34 31 28 27 25 24 23 21 20 19 18 18 18 17 15 13 12 9 7 6 6 5 5 4 4 3 3 4 4
5 4 4 4 3 3 6 3 3 5 5 5 4 5 3 2 3 2 3 0 2 5 3 2 1 1 4 5 4 7 7 6 5 6 8 10 15 13 10 8 6 3 10 16 23 31 34 36 39 42 44 45 43 42 41 39 37 35 33 31 30 28 27 25 23 22 21 20 19 19 19 17 15 14 11 8 7 7 6 6 5 5 4 4 4 4
4 6 5 3 3 2 5 4 1 1 1 4 4 4 3 2 2 1 3 1 2 4 3 2 1 1 3 3 3 6 7 8 9 9 9 10 13 12 16 11 8 5 5 11 19 27 31 34 36 38 41 43 42 41 40 39 37 36 36 34 33 31 29 27 26 24 23 21 20 20 20 19 18 16 14 11 8 8 8 7 6 5 5 5 4 5
1 5 4 2 2 1 3 5 5 5 3 3 4 5 4 4 4 3 3 3 3 2 2 2 1 2 2 2 4 5 6 7 9 8 8 10 11 17 25 20 14 10 4 4 12 20 26 29 32 34 36 37 38 38 37 37 37 37 37 37 36 34 32 30 28 27 25 22 21 21 21 21 20 18 17 13 10 9 9 8 7 7 6 6 6 6
1 5 6 4 3 1 1 2 5 6 2 1 3 5 2 4 4 2 3 4 3 1 0 1 2 3 2 3 5 4 6 6 7 9 12 15 17 25 31 28 24 19 12 6 3 11 18 24 28 30 30 30 32 33 34 35 36 37 38 39 38 36 34 32 31 29 26 23 22 22 22 22 21 20 19 17 13 12 11 9 9 8 8 7 7 7
0 5 6 4 3 1 1 1 3 3 2 1 2 3 4 4 7 4 1 1 3 2 2 1 2 3 2 1 4 5 6 6 7 10 13 16 20 26 28 27 28 26 22 17 10 2 6 13 19 23 26 27 28 30 31 32 34 36 38 39 39 38 36 34 33 31 28 25 24 23 24 24 23 22 21 20 17 14 13 11 10 10 10 10 10 9
2 4 6 1 0 3 4 3 4 3 4 4 3 5 3 3 5 4 2 3 4 2 4 1 2 2 0 1 3 5 5 6 7 7 9 14 19 23 23 23 25 26 26 25 22 16 9 3 4 11 16 21 24 27 28 29 30 32 35 38 39 38 38 36 35 33 30 28 26 25 25 25 24 23 22 21 19 17 15 13 12 13 12 12 12 11
2 2 7 2 1 5 7 4 3 5 4 4 4 3 3 2 1 1 2 1 1 2 3 3 2 2 3 4 1 1 1 5 7 6 7 10 14 17 19 21 23 25 28 28 27 24 21 16 11 4 2 8 13 19 22 24 25 27 30 33 35 37 38 38 37 36 33 31 29 27 26 25 25 24 23 22 21 19 18 16 15 14 14 14 14 13
1 1 5 4 1 3 5 3 1 3 3 3 3 3 2 2 4 2 2 3 2 2 2 3 3 2 4 5 4 5 3 3 5 7 6 8 12 14 17 20 23 25 28 28 27 26 24 22 20 16 11 6 2 4 8 12 16 19 23 26 30 33 36 37 37 37 36 35 31 28 29 29 28 26 24 23 22 22 20 17 17 16 15 15 15 14
2 2 3 5 4 1 1 1 3 4 1 1 2 1 1 2 2 1 1 2 3 3 3 1 2 4 5 4 5 5 4 2 2 5 6 9 12 13 14 17 20 23 25 26 25 25 23 23 22 20 17 14 12 9 5 2 5 9 14 18 23 28 31 34 36 37 38 37 33 29 29 31 31 30 28 26 25 24 22 19 18 18 17 17 17 16
1 2 2 3 4 1 4 4 3 4 4 3 2 3 3 3 2 1 1 1 1 3 4 4 2 6 4 3 4 4 3 2 3 4 5 9 11 12 13 16 18 21 23 23 22 22 21 21 21 20 18 18 16 14 10 6 2 3 7 11 16 20 24 27 31 36 38 37 36 33 28 29 32 33 32 31 29 27 25 22 20 19 19 19 19 18
1 3 1 3 4 4 6 3 1 2 2 4 2 1 3 3 4 4 3 3 1 1 2 3 2 5 5 3 4 4 3 2 4 5 5 8 10 11 13 15 17 19 21 20 20 19 18 18 18 17 16 17 17 16 14 12 8 4 3 6 10 13 16 18 23 29 33 34 37 36 31 29 32 35 36 35 33 31 29 25 22 21 21 20 20 20
1 1 1 3 4 4 5 3 3 3 4 4 1 2 3 2 3 5 4 3 3 3 2 2 1 5 5 2 2 5 2 4 7 7 7 9 10 11 13 15 15 16 17 17 17 16 16 15 14 14 14 14 15 14 14 14 13 11 9 6 6 8 11 13 16 21 26 30 33 35 33 32 32 34 38 39 36 34 32 28 25 23 22 21 21 21
1 1 1 2 4 5 6 5 4 5 3 2 2 2 1 3 5 3 2 3 1 3 4 4 4 5 4 3 5 5 2 5 9 10 10 8 8 9 11 12 12 13 13 13 14 14 14 14 14 14 14 13 12 11 11 11 11 12 12 12 11 10 9 11 14 17 21 25 29 31 34 36 35 33 36 40 40 37 35 32 28 25 24 23 22 22
2 1 2 2 2 3 2 3 3 2 0 0 2 3 0 4 5 2 1 3 1 3 3 4 4 4 4 5 5 5 3 2 6 10 11 9 7 6 8 10 10 10 11 11 12 12 12 13 13 12 12 11 11 10 9 9 10 10 10 11 11 12 12 11 12 15 18 21 25 29 31 36 39 38 37 39 41 41 39 36 31 28 26 25 24 23
2 1 2 5 5 6 6 6 5 2 2 2 2 4 2 2 4 4 4 3 4 3 2 5 4 2 4 6 6 5 3 2 3 5 7 8 7 5 6 7 7 8 9 10 11 11 10 10 10 10 10 10 9 9 9 9 9 9 9 9 10 11 12 13 13 14 16 19 23 27 29 32 37 40 41 40 42 43 42 38 33 30 28 27 25 24
4 2 3 4 5 6 6 6 3 1 2 5 5 6 6 2 4 5 4 4 4 3 4 7 6 4 6 7 7 6 5 4 4 1 2 4 5 5 4 5 6 7 9 10 11 11 11 10 10 10 10 10 9 9 9 10 10 9 8 8 8 9 10 12 14 14 15 17 21 25 28 30 33 37 39 41 43 43 40 36 34 32 30 28 27 26
4 2 3 3 4 6 4 5 3 0 3 4 4 7 8 6 7 8 8 7 7 6 8 6 8 7 7 6 8 8 6 5 4 2 0 1 2 4 4 5 6 7 9 10 11 11 12 12 11 12 12 12 12 12 12 12 12 11 11 10 9 9 10 11 13 14 16 17 20 22 25 28 31 34 36 39 41 40 37 35 35 34 32 29 28 26
3 2 3 3 3 6 5 5 3 3 3 4 5 7 6 5 8 8 8 6 7 8 8 5 8 9 7 7 8 7 7 6 4 3 2 1 1 2 3 4 6 7 9 10 11 11 12 13 13 14 14 15 15 16 16 15 15 15 14 14 13 12 13 13 14 15 16 17 19 20 22 25 29 31 33 36 37 37 37 36 37 38 35 30 28 26
1 2 2 1 2 6 5 4 4 5 5 5 8 6 3 4 6 5 4 3 4 7 8 5 7 8 7 7 7 6 6 5 5 5 4 2 1 1 2 4 6 7 8 9 10 11 12 13 14 15 16 17 17 18 18 19 18 18 18 18 17 16 16 16 16 17 17 17 18 19 20 22 25 28 30 32 33 35 37 37 38 39 34 29 27 26
1 1 1 1 3 5 3 4 7 5 4 8 8 6 5 6 6 5 5 5 6 6 6 4 5 7 7 6 7 6 6 5 7 8 6 4 3 3 1 3 5 6 8 9 10 12 13 14 15 16 17 18 19 20 20 21 21 21 21 21 21 21 20 19 19 19 19 19 19 19 20 21 23 26 29 30 30 34 38 38 38 36 31 29 29 27
2 2 0 2 3 3 3 6 7 4 5 9 7 8 11 11 9 7 5 6 7 6 5 6 7 6 5 7 7 7 5 6 7 7 5 4 5 5 2 2 5 7 9 11 12 14 15 16 17 18 19 19 20 21 22 23 24 24 23 24 24 24 24 24 23 22 22 21 20 21 21 21 23 25 29 30 29 32 37 39 39 37 34 32 31 28
2 2 2 3 2 2 2 2 1 1 5 7 5 6 10 11 11 11 9 8 8 5 3 3 4 3 5 7 8 8 6 4 3 4 5 7 7 6 4 3 7 10 12 14 14 15 16 17 19 19 20 21 21 22 23 24 24 25 26 26 26 26 26 25 25 25 24 23 22 21 21 21 22 24 27 29 30 32 35 39 39 37 34 32 29 27
2 2 2 1 2 2 0 4 2 4 6 4 4 3 1 2 6 10 9 5 2 1 1 3 3 0 3 4 5 5 4 2 4 7 8 9 10 10 8 7 10 13 15 16 17 18 18 19 21 22 22 22 22 23 23 24 25 26 28 28 28 29 27 26 26 25 25 24 23 22 22 21 21 24 26 28 29 31 36 39 38 34 32 29 26 24
4 3 2 1 1 1 1 3 4 5 5 5 5 5 4 4 3 1 4 4 4 1 1 1 1 1 0 2 5 4 4 5 8 12 10 10 11 12 11 12 14 16 19 20 21 21 22 22 23 23 24 24 24 24 24 25 26 28 29 29 30 30 29 28 27 26 25 24 23 22 22 21 20 23 26 28 29 32 37 39 36 33 31 28 25 23
5 3 2 1 1 2 2 3 3 4 7 5 4 4 2 1 2 2 3 4 4 1 2 3 2 2 2 4 6 5 4 4 8 10 8 6 8 11 13 15 16 18 21 23 23 24 24 24 24 24 24 25 25 26 26 27 28 30 32 32 31 31 30 30 29 27 25 25 23 21 22 21 20 23 26 28 30 34 38 39 36 34 31 28 25 21
4 2 3 3 1 1 1 3 3 3 5 5 3 4 2 2 3 3 2 2 4 3 3 1 1 3 4 5 5 4 2 1 4 7 6 6 8 10 13 16 17 20 23 24 25 25 25 24 24 24 24 26 26 27 27 29 31 33 34 34 33 32 32 31 30 28 26 25 24 22 22 22 21 24 27 28 30 34 37 39 37 32 27 24 21 17
3 2 3 3 1 1 2 2 2 3 4 4 5 6 5 2 4 3 2 1 3 5 7 3 4 6 7 7 5 3 2 0 3 8 11 12 11 12 14 17 19 21 23 24 25 26 25 25 25 25 25 26 28 28 29 30 32 34 36 35 33 33 33 32 30 28 26 26 25 22 22 22 21 24 27 30 30 32 36 38 35 30 25 21 17 14
4 3 3 1 2 1 3 3 3 3 3 3 4 7 9 3 4 3 1 4 5 7 8 4 5 9 10 9 5 4 4 5 7 12 18 18 18 19 19 21 23 24 25 25 24 25 25 25 25 26 26 28 29 30 31 33 34 35 36 35 34 34 33 31 30 28 27 26 24 22 21 21 20 22 26 30 31 32 38 38 33 28 24 20 16 13
3 2 1 1 2 2 2 2 3 3 3 3 4 7 9 4 3 3 2 4 5 8 9 6 8 10 10 9 6 6 9 14 15 19 22 23 24 25 25 26 27 27 27 27 26 25 26 26 27 27 28 29 31 33 33 33 34 35 35 35 35 35 32 30 29 27 26 25 23 21 20 20 20 21 25 28 29 34 39 37 32 27 21 18 15 13
1 2 2 0 0 1 2 2 3 3 2 1 2 6 8 4 3 4 5 7 8 8 6 6 8 9 10 12 12 13 18 21 22 23 25 26 28 30 30 30 30 29 29 29 28 27 27 29 29 29 30 31 32 33 32 31 33 34 34 35 36 33 30 28 26 24 23 22 21 19 18 19 20 22 24 27 33 42 42 35 29 23 17 15 13 11
1 1 3 2 2 1 1 1 2 3 3 2 2 4 5 2 4 8 11 12 10 7 7 9 10 10 11 14 16 19 21 23 25 27 28 29 31 32 33 33 33 33 33 31 30 30 30 31 32 32 33 33 33 32 28 28 30 32 32 34 34 30 27 25 23 21 20 20 19 18 17 19 22 25 27 32 40 44 39 31 24 18 15 14 14 13
2 2 2 2 1 0 1 3 2 3 3 2 1 1 0 5 11 15 15 13 10 10 12 14 15 15 15 17 19 21 22 25 27 29 30 32 33 33 34 35 35 35 35 34 33 32 32 34 35 34 35 35 33 30 27 26 30 31 32 33 30 26 24 22 20 18 18 18 18 16 17 21 25 28 32 36 34 30 27 24 20 18 17 15 14 13
2 3 2 3 2 2 4 5 7 10 11 7 5 5 10 15 17 18 17 15 12 12 15 17 17 18 18 20 23 24 26 28 30 31 32 34 34 34 35 36 36 35 36 36 35 34 35 36 36 36 38 37 33 29 27 27 29 32 33 30 26 24 22 19 18 17 16 16 15 14 18 25 28 31 34 33 27 24 23 21 19 19 17 15 13 11
5 4 1 3 2 4 6 8 10 14 16 13 10 14 20 21 20 18 15 14 13 15 16 16 18 21 23 25 26 28 30 32 32 33 34 34 34 35 35 36 36 36 35 35 36 35 35 35 36 38 39 38 34 30 28 28 29 32 32 27 23 23 22 19 17 16 15 15 15 17 23 28 31 32 31 27 25 25 24 21 20 18 15 13 11 10
5 4 0 2 3 4 4 4 5 9 15 17 20 25 25 22 19 15 12 13 16 17 17 18 22 27 28 29 29 31 32 33 34 35 34 33 34 34 34 35 36 35 34 34 34 34 34 35 37 37 38 38 34 30 28 29 29 29 27 24 23 24 23 20 17 15 15 17 19 24 29 32 32 31 29 27 25 24 22 19 17 14 12 11 11 10
2 2 1 3 4 3 5 9 14 20 25 25 24 24 20 18 18 16 16 18 19 19 20 24 27 29 29 29 30 31 32 33 33 33 33 33 34 34 34 34 34 33 32 32 32 33 34 34 35 36 36 36 32 29 29 28 25 24 24 25 25 24 22 20 17 16 18 21 26 30 33 35 34 32 31 29 25 21 18 15 13 12 12 12 12 10
4 3 3 2 3 5 6 11 16 18 18 19 20 19 17 17 19 21 21 22 22 23 27 29 29 28 28 28 28 28 30 32 32 32 33 34 35 35 35 33 32 32 32 32 32 32 32 34 36 36 34 32 30 28 26 23 21 22 24 24 23 21 19 19 19 20 23 27 30 33 36 36 34 32 31 28 23 18 15 13 13 13 13 13 11 9
3 3 3 2 3 4 5 10 13 9 7 15 23 24 20 19 21 24 25 25 26 28 29 29 28 27 27 27 28 29 31 33 33 33 34 35 35 35 33 32 32 32 32 33 32 32 34 36 35 33 30 29 27 23 20 18 19 22 23 22 20 19 18 18 21 26 31 35 38 40 39 37 34 31 29 27 24 20 16 15 15 14 13 12 11 9
6 7 6 4 4 7 11 19 21 14 12 20 27 27 24 23 25 27 28 28 28 27 25 25 27 29 30 32 32 31 32 34 34 34 34 34 33 32 31 31 32 33 33 33 33 34 37 36 32 28 27 25 21 16 15 16 16 19 21 19 12 14 18 21 26 33 39 41 42 41 39 36 33 29 26 25 24 20 17 16 17 15 13 11 11 10
Wind_Direction
55 47 24 214 232 237 231 197 178 178 134 129 121 117 152 160 291 276 268 291 338 95 324 245 241 278 277 264 250 190 200 236 234 227 210 207 208 208 208 209 212 214 215 213 209 209 209 210 212 213 215 216 216 215 213 214 213 211 207 199 198 205 205 199 199 201 190 177 161 145 134 127 122 113 101 89 77 346 300 285 278 270 263 258 257 258
53 49 245 224 222 218 207 175 139 112 87 96 125 123 155 188 251 264 254 311 344 100 263 330 345 289 267 270 262 180 183 226 225 222 216 214 214 215 216 215 215 217 218 216 212 210 210 210 211 212 215 216 216 215 213 213 214 213 208 201 205 211 205 192 191 185 159 147 144 138 130 124 115 105 99 88 80 48 349 313 300 291 283 276 270 267
20 283 257 238 204 142 104 120 113 104 92 79 123 128 298 255 275 291 299 331 356 78 273 342 4 290 277 283 284 242 211 210 207 212 218 219 214 214 218 218 217 218 218 217 215 212 211 211 211 212 214 216 217 217 215 213 213 214 208 199 205 213 201 185 181 172 153 145 142 138 131 123 113 101 97 93 88 79 68 51 24 357 321 299 283 277
336 252 244 203 148 128 81 88 104 97 90 88 118 138 263 280 337 294 299 327 351 53 295 24 11 295 300 311 295 287 280 243 204 218 229 226 222 219 220 220 219 219 219 217 216 214 211 210 211 212 214 215 216 217 216 214 213 214 207 199 205 211 201 184 174 167 161 154 149 146 138 126 124 114 97 92 89 83 79 72 60 49 37 19 322 283
252 242 198 124 128 147 116 90 119 130 261 304 159 159 184 236 201 217 279 329 347 12 34 48 10 311 326 337 300 307 329 316 311 274 240 225 229 229 225 222 222 223 222 220 216 213 211 210 211 212 213 215 216 218 218 216 216 214 206 201 207 211 202 187 175 172 172 168 161 157 150 143 144 136 112 98 92 84 79 74 70 63 57 55 53 56
261 259 173 127 98 131 137 181 182 155 181 310 247 197 181 179 188 213 329 23 28 350 348 29 355 290 322 326 276 307 347 322 329 325 261 229 218 224 226 226 227 227 226 225 221 217 213 211 212 212 213 217 219 221 220 218 217 213 206 204 209 212 204 190 181 179 181 180 174 163 149 145 148 144 132 118 102 88 81 75 73 70 67 66 67 71
254 310 77 120 117 104 129 240 232 161 131 311 248 193 155 133 131 145 115 77 78 270 308 43 156 256 320 319 279 324 345 314 314 308 281 266 229 219 230 233 231 231 230 228 225 220 216 212 212 212 214 219 222 222 220 218 217 213 207 206 211 216 209 197 188 187 190 190 182 166 145 136 144 146 138 135 121 99 89 82 77 76 74 75 76 79
230 325 31 72 93 92 123 246 232 152 122 234 227 143 127 128 147 157 135 125 197 250 322 16 109 201 305 280 283 342 345 319 314 302 297 295 276 247 248 248 240 236 233 231 226 221 217 214 214 215 218 222 224 223 221 218 216 213 209 208 213 218 213 205 197 194 198 198 186 173 163 151 149 150 145 149 144 119 105 93 87 84 80 81 84 87
227 262 306 79 81 91 199 216 193 154 142 242 192 126 129 137 144 141 119 122 16 21 308 323 37 149 279 274 305 357 343 312 305 294 293 303 311 312 297 280 260 245 238 235 231 224 219 218 218 219 221 223 224 223 223 220 217 214 211 210 213 216 216 212 205 200 202 204 194 183 183 176 163 164 169 172 165 145 128 109 99 96 92 91 93 95
247 240 245 136 111 220 228 213 176 161 189 216 137 97 74 74 77 83 99 111 45 48 250 274 301 171 270 284 308 358 358 296 288 290 288 307 320 319 302 284 264 245 237 235 234 229 225 224 223 221 221 223 224 224 223 220 218 216 212 211 213 216 219 218 212 206 203 207 203 194 196 194 183 183 185 183 180 170 157 140 124 115 117 113 107 107
287 291 243 164 188 206 173 144 158 141 123 126 101 66 55 41 38 49 57 86 66 353 255 254 224 125 271 280 280 289 324 282 281 301 307 316 321 315 301 285 258 234 227 228 231 229 226 224 222 219 220 222 224 223 223 221 219 217 214 214 216 218 222 221 217 212 207 209 209 202 202 204 201 200 194 186 186 180 167 166 165 154 154 147 134 128
331 335 246 252 236 165 100 69 48 66 80 97 76 70 74 2 16 33 355 49 89 264 265 271 101 104 238 269 285 284 290 291 278 290 301 313 316 320 348 342 283 233 223 222 224 224 222 220 219 219 220 223 224 224 224 222 220 218 217 217 218 219 222 222 220 217 212 212 214 208 206 209 212 214 207 192 185 181 176 183 193 195 193 185 169 158
322 256 265 308 277 162 109 70 18 20 42 78 81 81 88 342 16 12 304 337 199 243 272 320 64 124 241 243 278 303 311 319 319 307 306 311 314 337 32 34 4 290 233 223 218 218 218 219 220 220 221 223 225 226 226 225 222 220 220 220 220 222 223 223 221 220 216 215 218 213 209 212 217 222 219 205 191 189 190 197 206 208 210 208 193 183
321 300 321 336 289 199 139 137 184 290 73 129 143 125 126 110 69 295 267 279 263 264 304 320 308 285 275 266 298 307 311 333 351 341 331 323 323 9 49 48 31 17 267 234 222 218 217 219 221 223 223 225 227 228 229 228 225 223 222 221 222 223 224 224 223 222 220 219 221 219 214 213 218 224 226 216 205 204 204 204 211 219 223 221 210 202
276 306 294 202 270 299 173 175 167 152 140 172 161 132 147 158 150 220 222 195 237 263 321 309 244 191 210 292 307 307 322 357 13 1 7 4 2 44 59 57 48 40 10 263 235 224 219 220 222 225 226 227 229 230 231 231 229 226 225 224 223 224 223 224 224 223 223 221 222 222 218 216 219 225 230 227 217 217 218 212 211 219 227 231 226 221
158 260 260 262 284 269 205 199 136 115 106 224 136 112 161 185 151 168 188 171 178 169 254 260 232 215 207 288 306 330 345 1 18 21 33 29 29 50 57 56 55 54 49 34 282 236 226 225 225 227 228 229 231 232 233 233 231 228 227 225 225 225 225 226 226 226 226 224 223 225 223 220 220 224 230 232 226 224 224 220 218 221 226 233 235 235
115 269 281 309 316 346 353 182 126 134 184 173 126 163 210 169 122 117 184 47 74 143 252 245 233 289 338 332 326 354 357 353 6 20 30 29 36 47 50 53 59 62 62 59 50 16 235 231 231 233 233 235 235 235 235 235 232 230 228 226 225 225 226 227 229 229 228 225 224 226 226 224 221 222 227 230 228 226 226 223 222 223 225 230 235 238
165 271 295 318 92 338 360 63 56 46 121 127 178 202 186 104 94 108 150 15 47 195 272 296 197 262 94 181 315 356 13 3 353 1 22 30 39 45 46 53 62 66 70 69 66 65 68 85 233 241 244 245 244 241 239 237 235 233 232 230 228 227 227 228 229 230 231 231 228 227 228 227 224 221 224 228 228 227 228 226 222 223 227 230 236 239
133 268 295 291 189 314 349 49 29 2 60 124 180 170 110 118 159 76 138 138 130 212 285 315 265 236 205 213 219 103 15 347 340 348 17 25 32 44 52 59 66 70 72 72 70 68 69 72 77 86 247 258 257 254 251 248 245 241 238 237 236 234 232 230 230 230 233 235 234 233 233 232 230 226 224 227 228 227 227 227 225 225 228 233 240 243
80 144 283 294 267 293 347 41 234 303 2 39 52 37 36 129 161 155 141 161 172 187 249 309 314 270 232 222 161 152 224 305 346 359 5 4 18 41 57 64 69 72 73 73 72 70 68 69 70 73 77 81 90 261 264 264 261 256 250 246 243 241 239 236 235 233 234 236 237 240 242 240 238 235 232 232 233 231 229 229 227 227 229 234 241 246
53 99 249 293 330 293 282 313 196 190 176 27 25 359 354 83 130 165 81 119 134 152 181 199 290 273 252 219 166 165 207 241 5 10 355 359 18 40 54 64 72 75 76 76 75 74 72 69 66 65 68 73 77 79 72 352 286 275 267 260 253 250 247 244 242 238 236 235 236 242 246 247 245 242 240 238 238 237 234 232 231 229 230 234 240 245
41 117 194 285 337 284 234 250 209 187 179 168 181 195 167 131 131 155 308 318 100 140 170 158 218 264 258 217 202 203 214 263 9 31 18 16 32 47 56 66 73 76 78 78 77 76 74 73 71 68 67 67 69 71 72 66 31 306 284 275 268 263 260 256 252 247 241 237 236 239 245 250 250 247 245 242 242 241 238 235 234 233 233 234 237 242
131 106 132 267 271 238 248 262 161 190 157 135 150 152 136 135 126 141 207 244 159 134 153 135 171 263 264 229 229 263 282 1 45 71 67 50 54 60 64 71 74 76 78 77 77 75 72 71 71 69 67 66 65 63 60 56 47 22 322 284 275 273 275 275 269 261 253 245 239 236 239 249 253 250 248 246 244 243 240 237 235 235 235 235 237 240
75 82 25 291 295 302 303 337 45 41 75 92 25 55 109 145 133 149 177 168 160 178 143 118 229 263 270 270 303 306 302 106 93 88 79 66 67 71 71 72 72 73 74 75 75 73 69 67 64 61 59 57 55 51 46 42 36 27 17 353 311 289 281 279 279 275 266 257 248 240 236 243 250 250 248 246 245 243 241 238 235 235 235 235 236 237
328 276 98 16 332 330 334 349 356 347 40 105 293 332 83 103 99 112 119 82 122 211 157 157 231 248 265 316 337 324 346 104 106 100 90 72 66 72 71 69 65 61 60 61 61 59 58 55 51 50 49 46 45 41 35 29 22 15 8 360 347 331 304 278 270 271 272 269 262 251 240 238 245 249 247 245 244 244 240 236 234 233 233 233 233 234
213 206 145 139 228 238 255 266 263 278 325 74 296 290 318 103 105 107 77 89 217 246 164 168 222 256 278 303 320 322 340 95 118 110 103 93 80 69 63 60 55 48 44 42 41 40 40 38 35 34 34 33 28 21 14 8 3 359 352 346 340 335 327 308 285 272 269 270 269 263 252 243 243 246 248 247 245 245 241 235 231 231 231 231 230 229
141 351 202 175 194 208 209 229 227 164 176 217 215 234 238 119 115 107 99 142 195 198 205 211 199 218 266 268 283 297 289 213 170 116 106 104 97 87 72 62 51 43 38 32 29 28 27 23 17 14 15 13 6 1 357 351 344 342 338 332 327 324 323 319 309 292 278 271 270 268 263 256 251 250 252 251 249 246 241 234 229 229 230 229 227 225
101 345 260 181 215 225 214 240 267 32 235 211 177 208 235 207 123 127 167 206 165 141 256 240 191 195 244 240 244 259 255 240 236 193 108 95 93 99 86 60 42 33 27 20 17 14 12 7 2 359 358 354 348 343 339 336 331 329 325 318 314 309 307 308 306 302 292 279 272 269 267 266 263 260 257 254 250 247 242 236 232 230 230 227 225 224
118 275 245 179 262 265 249 257 266 17 268 240 180 206 222 201 173 180 205 198 155 183 243 224 188 212 237 227 227 233 223 218 228 234 260 59 96 100 77 49 34 22 12 8 4 1 359 354 349 346 344 342 339 333 327 322 318 319 317 313 308 299 293 291 290 294 294 287 280 276 272 270 269 266 262 258 253 247 242 239 235 232 229 226 223 221
131 253 225 189 281 294 283 275 248 200 252 279 247 227 216 207 204 206 218 203 181 218 243 210 199 224 230 218 222 223 210 207 220 238 244 231 96 77 52 33 22 15 8 2 358 353 348 343 338 336 333 331 330 326 323 320 316 315 314 312 309 303 294 286 280 279 281 284 285 281 276 273 271 270 267 263 257 247 239 238 235 231 227 221 217 217
113 247 244 181 283 282 276 283 265 219 213 242 252 241 216 234 239 237 249 226 200 243 256 223 221 247 247 223 208 197 198 207 224 231 223 214 183 98 52 22 10 5 359 352 345 338 334 331 328 325 323 322 321 318 316 314 313 312 311 308 305 302 297 289 283 277 273 275 279 277 273 271 271 271 267 263 259 248 238 235 232 226 220 213 210 213
117 241 318 46 277 263 220 243 263 262 253 253 248 230 215 226 227 218 219 198 189 226 246 230 238 256 244 212 192 189 196 211 230 232 220 210 203 179 121 12 3 356 349 342 335 330 326 321 318 316 314 313 312 311 310 309 307 306 305 303 301 300 299 295 290 284 277 274 274 272 270 267 266 266 264 262 260 251 240 233 228 221 214 209 208 209
156 199 211 146 250 262 179 220 257 306 302 270 240 208 213 221 222 223 229 215 200 201 210 220 238 242 203 172 174 191 207 222 234 237 234 240 227 199 181 10 1 350 347 344 338 334 330 325 320 316 312 310 307 306 305 305 304 304 301 300 299 298 298 298 296 291 285 280 277 273 271 268 265 263 263 263 260 252 243 234 225 218 212 209 208 208
151 194 221 178 206 274 203 205 290 305 262 261 244 216 218 220 219 222 229 229 217 201 190 232 254 221 164 165 175 187 199 214 254 272 270 268 257 230 223 321 344 338 339 339 335 332 328 324 320 316 313 311 308 305 303 301 301 301 299 298 298 297 297 297 295 293 288 283 279 275 272 269 266 265 264 261 255 248 239 229 219 211 207 206 205 204
177 189 225 191 192 244 36 69 76 240 244 268 306 298 265 203 206 217 236 264 270 234 355 1 336 194 150 170 178 178 190 227 296 292 275 270 264 246 243 290 319 323 328 330 327 325 323 319 316 313 310 308 306 304 303 302 301 299 297 296 297 296 296 295 293 292 290 285 280 276 272 268 267 266 263 257 249 239 230 222 211 202 201 202 202 202
173 170 188 194 194 211 102 115 182 241 278 314 335 351 16 33 52 196 261 326 358 263 205 81 263 270 310 186 182 186 223 264 291 291 282 274 267 250 250 280 303 312 318 323 322 320 319 317 315 312 309 306 303 300 299 300 300 298 296 296 296 295 296 294 291 291 291 288 283 278 272 267 266 266 261 254 245 234 226 218 207 200 200 200 199 201
160 144 169 218 219 176 177 215 241 295 309 313 344 0 356 4 50 136 216 295 318 289 141 128 177 256 237 215 219 230 246 285 306 301 294 285 274 264 266 278 290 299 308 315 317 316 317 316 314 313 311 308 305 303 301 300 298 296 294 294 295 295 295 292 289 290 292 290 285 278 271 265 263 263 260 253 243 233 224 213 203 199 199 196 193 196
144 152 169 190 235 134 147 284 306 312 284 269 271 290 289 236 222 178 143 313 319 350 27 87 255 276 262 258 260 237 219 346 307 284 295 307 292 280 278 278 283 291 300 308 312 313 314 314 314 313 312 310 308 308 306 302 300 297 295 295 295 294 292 290 289 289 290 290 285 276 268 263 260 261 258 250 241 231 218 205 196 193 192 190 188 190
40 35 117 140 260 101 139 230 242 219 241 244 246 278 311 291 208 166 76 297 287 339 353 343 288 284 280 277 262 194 150 148 237 269 301 312 299 290 289 289 291 295 301 307 310 311 311 312 312 311 311 310 310 310 308 305 303 300 298 297 297 293 289 288 289 289 288 287 282 273 265 259 256 258 254 247 241 228 209 196 188 184 184 185 184 187
13 12 53 111 254 226 162 210 240 225 240 242 244 290 321 332 164 142 342 262 270 321 333 319 286 290 289 281 252 171 182 232 255 291 306 307 301 299 301 302 304 305 306 308 308 308 309 309 309 309 310 310 311 312 310 307 304 301 299 299 296 291 288 288 288 287 286 284 278 271 262 252 250 253 249 246 240 220 198 188 181 177 176 176 176 187
352 349 9 169 231 224 189 230 275 256 241 253 275 317 343 7 153 172 225 242 270 301 308 301 295 301 299 283 251 221 251 271 284 297 303 304 302 302 303 305 306 307 306 306 306 306 306 306 305 306 307 310 312 312 310 308 304 300 299 297 293 290 289 288 286 283 282 281 275 267 257 248 246 248 249 246 230 203 186 180 177 174 172 171 175 190
343 340 338 20 206 241 191 202 296 294 246 220 316 357 16 43 174 224 272 289 289 289 298 303 298 301 301 292 281 278 286 295 299 300 303 305 305 305 305 306 307 307 307 307 305 305 305 304 303 303 306 310 312 311 310 307 303 300 298 294 289 289 289 286 282 280 279 277 269 259 251 244 243 248 247 234 209 192 183 179 179 179 177 174 177 189
182 283 305 254 209 262 183 167 284 278 248 246 332 21 54 93 249 276 294 302 299 297 308 307 300 300 300 296 296 298 300 303 305 306 309 309 308 307 307 306 306 306 306 307 307 306 305 303 301 302 305 309 311 310 308 306 302 300 297 291 289 291 289 283 278 277 275 269 258 249 242 236 238 239 226 204 191 186 182 176 172 170 170 171 177 185
197 186 249 250 224 154 179 191 205 209 208 217 229 195 333 301 292 290 288 285 284 298 309 305 302 305 304 300 302 304 304 304 306 310 312 311 310 308 306 305 304 303 303 303 304 306 306 303 301 302 304 308 309 307 305 304 302 298 294 291 293 294 288 280 276 272 268 258 246 238 234 233 232 225 206 188 178 172 164 155 152 156 161 166 170 176
217 186 194 226 240 221 218 239 259 272 281 279 252 275 312 315 306 296 282 266 269 296 305 302 302 308 310 308 306 305 304 305 306 309 309 309 308 306 305 303 302 301 301 300 299 301 303 303 302 302 304 306 306 303 301 302 300 296 292 292 293 290 282 276 270 262 255 247 235 226 228 225 214 200 187 177 166 155 147 144 150 158 161 163 164 170
282 291 229 201 260 295 277 262 261 274 283 281 274 295 311 312 304 297 278 259 272 296 301 300 305 311 312 311 307 303 302 303 304 304 304 303 303 304 303 302 301 300 300 299 298 299 301 301 301 301 303 304 303 301 300 300 299 296 291 288 285 281 276 269 258 248 243 235 224 219 219 210 192 176 166 156 150 148 146 147 152 153 155 161 168 178
295 314 254 219 281 310 289 275 281 288 291 294 297 302 307 309 305 299 284 277 289 299 300 303 309 312 311 310 306 302 302 302 300 300 299 298 299 300 301 300 300 300 300 299 298 299 299 299 299 300 301 302 301 300 300 299 298 295 289 282 278 276 272 264 247 234 231 226 216 210 203 189 171 159 152 148 148 147 143 142 142 139 145 164 178 182
298 14 8 242 246 248 265 286 292 290 289 292 295 297 304 313 312 306 303 301 300 299 300 303 306 307 306 306 305 303 301 300 299 297 296 296 296 297 297 297 298 298 298 296 295 297 298 298 298 299 300 299 298 300 300 298 296 291 284 279 277 272 265 253 235 220 220 217 207 197 185 169 157 151 150 151 152 149 142 141 146 153 164 175 178 171
269 312 297 264 275 283 283 287 288 289 289 289 290 291 299 309 310 306 303 300 295 295 299 301 301 302 301 301 303 302 299 297 296 295 295 294 294 294 295 295 295 295 294 293 295 298 299 299 299 299 298 297 298 300 300 297 293 286 280 277 274 264 250 238 224 213 209 200 186 172 160 152 147 146 146 146 148 148 146 152 163 168 169 164 157 140
267 279 270 270 289 274 262 276 285 290 288 286 290 294 297 302 306 303 297 293 293 295 298 299 299 299 298 298 300 299 296 294 293 293 293 292 292 293 293 294 293 291 290 292 295 297 298 300 301 300 297 296 297 297 297 297 292 285 282 280 269 247 229 221 212 201 191 178 162 150 144 142 142 144 144 146 152 156 157 160 161 158 151 142 129 106
236 246 248 238 252 260 269 280 286 284 275 281 290 295 298 302 304 299 294 293 295 297 298 298 298 297 297 298 299 297 294 294 294 295 294 291 290 291 292 292 291 290 290 291 293 295 298 300 300 298 296 294 293 294 296 296 291 286 289 290 266 216 202 204 199 185 171 158 148 142 140 140 144 149 153 156 162 166 165 160 154 147 137 124 105 87